Showing default

HULIANWANG DIGUI-08, 62330

Orbit data source: Space-Track

HULIANWANG DIGUI-08, 62330 is a payload satellite owned by Zhongguo Xingwang (CN) in LEO that was launched on Mon, 16 Dec 2024 UTC via a CHANG ZHENG 5B/YZ-2 launch vehicle from the Wenchang Satellite Launch Center (WSC). Payload-class satellites include a variety of spacecraft equipped with specific instruments for various scientific and technological missions. These include communications satellites like Starlink; space stations such as the ISS; scientific satellites like the Hubble; Earth observation satellites from companies like Planet Labs, Umbra, and HawkEye 360; GPS; miniature CubeSats for education and research; and military/defense satellites.

Loading next visibility...
Identifier
62330, 2024-240H
Orbit
LEO
Country
Flag of CNCN / PRC
Related business
Manufacturer
CAST?
Mission
Operational Civil Communications
Bus & Motor
XINGWANG CL, Unknown motor
Mass
~800 kg wet, ~800 kg dry
Launch date (UTC)
2024-12-16 (1 year ago)
Launch vehicle
CHANG ZHENG 5B/YZ-2
Launch site
Wenchang Satellite Launch Center (WSC)
Object type
Payload
Rocket body
Debris
Shape & HBR
Box + 2 Pan, 5.0 m
Radar Cross Section
5.935 m², Large (>1 m²)

Expand to show TLE details & history
Last TLE update: 2 hours ago

TLE from 2 hours ago
0 HULIANWANG DIGUI-08
1 62330U 24240H   26126.56757332  .00000049  00000-0  79445-4 0  9997
2 62330  86.5059 357.4311 0001418  69.8060 290.3226 13.24407485 67135
Epoch: 2026-05-06T13:37Z
TLE epoch observation values (Epoch: 2026-05-06T13:37:18.334Z)
Latitude
-0.00009°
Longitude
-71.3215°
Altitude
1,170.455 km
Speed
7.268 km/s
True Right ascension
23h 49m 43s
True Declination
0° 00' 00"
Sunlit
Object was in daylight at epoch
Visualization orbit readout
Latitude
Unknown
Longitude
Unknown
Altitude
Unknown
Speed
Unknown
Apparent Right ascension
Unknown
Apparent Declination
Unknown
Sunlit
N/A
Visualization observer readout
Local Sidereal Time
23:44:37
Azimuth
Unknown
Elevation
Unknown
Doppler factor
Unknown
Orbital elements
Apogee altitude
1,166.121 km
Perigee altitude
1,163.982 km
Semi-major axis
7,543.189 km
Eccentricity
0.00014
Inclination
86.5059°
RAAN
357.4311°
Arg. of periapsis
69.806°
True anomaly
290.30736°
Mean anomaly
290.3226°
Eccentric anomaly
290.31498°
Mean motion
3.31292 °/min
Orbital period
108.67 mins
BSTAR
0.000079445
Loading maneuver chart data...
Computing Atmospheric mass density...
Loading historical data...
Loading historical data...
Loading historical data...
Loading historical data...
Loading historical data...
Loading historical data...
Loading historical data...

Documentation

Showing up to 5 results
|